Regional Weather Roundup
Issued by NWS Upton, NY

Current Version | Previous Version | Graphics & Text | Print | Product List | Glossary Off
Versions: 1 2 3 4 5 6 7 8 9 10 11 12 13 14 15 16 17 18 19 20 21 22 23 24 25 26 27 28 29 30 31 32 33 34 35 36 37 38 39 40 41 42 43 44 45 46 47 48 49 50

554
ASUS41 KOKX 270209
RWROKX

REGIONAL WEATHER ROUNDUP
NATIONAL WEATHER SERVICE NEW YORK NY
1000 PM EDT WED APR 26 2017

NOTE: "FAIR" INDICATES FEW OR NO CLOUDS BELOW 12,000 FEET WITH NO
SIGNIFICANT WEATHER AND/OR OBSTRUCTIONS TO VISIBILITY.

NYZ071-072-176-178-NJZ106-104-270300-
NEW YORK CITY METRO AREA

CITY           SKY/WX    TMP DP  RH WIND       PRES   REMARKS
Central Park   CLOUDY    59  58  96 CALM      29.86R FOG
Wall St Helipt CLOUDY    59  57  93 CALM      29.85R
Bronx Bot Gard   N/A     59  57  94 CALM      29.85R
LaGuardia APRT CLOUDY    61  56  83 E6        29.83R
Kennedy INTL   CLOUDY    60  57  89 N3        29.84R
Breezy Point     N/A     55 N/A N/A SW1         N/A
Newark/Liberty CLOUDY    59  58  96 CALM      29.84R
Teterboro      CLOUDY    61  58  90 CALM      29.82R
$$

NYZ177-179-078>081-270300-
LONG ISLAND NEW YORK

CITY           SKY/WX    TMP DP  RH WIND       PRES   REMARKS
Jones Beach      N/A     52 N/A N/A S2          N/A
Matinecock PT  NOT AVBL
Farmingdale    CLOUDY    60  57  89 E6        29.83R
MacArthur/ISP  CLOUDY    61  58  90 NE3       29.83R
Shirley        CLOUDY    57  56  96 S5        29.84R FOG
Mt Sinai Harb    N/A    N/A N/A N/A MISG        N/A
Westhampton    FOG       53  52  96 CALM      29.86R VSB 3/4
East Hampton   FOG       53  53  99 CALM      29.83S VSB 1/2
Montauk          N/A     52  52 100 CALM      29.85
$$

NYZ052-065-067-270300-
HUDSON VALLEY

CITY           SKY/WX    TMP DP  RH WIND       PRES   REMARKS
White Plains   CLOUDY    58  56  93 CALM      29.83R
Larchmont Harb   N/A     54 N/A N/A NE1         N/A
Croton O-T Hud   N/A     57 N/A N/A MISG        N/A
Newburgh       CLOUDY    59  59 100 CALM      29.85R
Montgomery     CLOUDY    58  56  93 CALM      29.83R
Poughkeepsie   CLOUDY    58  56  93 CALM      29.82R
Albany         CLOUDY    63  54  72 SE7       29.83R
$$

NJZ001-105-106-008-010-013-015-019>022-104-270300-
NEW JERSEY

CITY           SKY/WX    TMP DP  RH WIND       PRES   REMARKS
Newark/Liberty CLOUDY    59  58  96 CALM      29.84R
Teterboro      CLOUDY    61  58  90 CALM      29.82R
Caldwell       CLOUDY    60  57  89 CALM      29.84R
Somerville     CLOUDY    61  58  90 CALM      29.82R
Linden         CLOUDY    60  57  91 CALM      29.84R
Sussex         CLOUDY    56  55  97 CALM      29.84R
Andover          N/A     58  55  90 CALM      29.84R
Trenton        CLOUDY    61  58  90 SE3       29.83R
Millville      CLOUDY    61  61 100 SE5       29.84R
Atlantic City  CLOUDY    57  54  89 SE5       29.85R
Wrightstown    NOT AVBL
Toms River     CLOUDY    59  57  93 CALM      29.85R
Belmar         CLOUDY    58  57  97 CALM      29.85R FOG
$$

PAZ047>061-062-071-270300-
EASTERN PENNSYLVANIA

CITY           SKY/WX    TMP DP  RH WIND       PRES   REMARKS
Philadelphia   CLOUDY    62  56  80 CALM      29.84R
Allentown      CLOUDY    64  55  72 E6        29.82R
Scranton       CLEAR     65  56  72 E3        29.80R
$$

CTZ002-004>006-009-010-012-RIZ004-006-007-MAZ004-011-015-270300-
SOUTHERN NEW ENGLAND
 IN CT

CITY           SKY/WX    TMP DP  RH WIND       PRES   REMARKS
Bradley INTL   DRIZZLE   57  57 100 N6        29.84S FOG
Hartford       LGT RAIN  58  58 100 N5        29.84R FOG
Danbury        CLOUDY    58  56  93 NE6       29.85R
Wtrbury/Oxford CLOUDY    57  52  82 NE5       29.85S
Bridgeport     CLOUDY    58  53  84 CALM      29.84R
Meriden        CLOUDY    59  57  93 CALM      29.84R
New Haven      CLOUDY    55  53  93 CALM      29.83S
Chester        LGT RAIN  59  59 100 CALM      29.84S
Groton         LGT RAIN  52  51  97 S3        29.83R FOG
Wilimantic     CLOUDY    60  58  92 N3        29.85R FOG

 IN RI

CITY           SKY/WX    TMP DP  RH WIND       PRES   REMARKS
Providence     CLOUDY    58  58 100 SW3       29.83R FOG
Block Island   FOG       52  52 100 CALM      29.84R VSB 1/2
Westerly       CLOUDY    57  56  96 CALM      29.84R
 IN MA

CITY           SKY/WX    TMP DP  RH WIND       PRES   REMARKS
Boston         FOG       50  50 100 N8        29.83R VSB 1/16
Worcester      CLOUDY    53  52  96 NW5       29.85R FOG
Westfield      CLOUDY    56  56 100 N6        29.84R FOG
Provincetown   FOG       53  53 100 SE12      29.82F VSB 1
Nantucket      FOG       50  49  96 S7        29.84S VSB 1/4
$$

ANZ330-335-338-340-345-350-353-355-270300-
COASTAL MARINE OBSERVATIONS


STATION/POSITION TIME  SKY/WX   TEMP    WIND        PRES    VSBY  WAVE
                                AIR SEA DIR/SP/G                  HT/PER
                 (UTC)          (F)     (DEG/KT/KT) (MB)    (MI)  (FT/S)
NY HARB ENTRANCE 0050            51 49  190/  2/  4 1009.4          7/10
20 S FIRE ISLAND 0150            49 49   CALM  /  2 1009.8          8/11
GREAT SOUTH BAY  0130            54 57  130/  4/  6   N/A
23 SSW MONTAUK P 0050            48 46              1010.1         10/11
15 E BARNEGAT LI 0130               51                N/A           7/10
HUDSON CANYON    0050            53 51  240/  4/  6 1009.5          8/11
KINGS POINT      0130            55 49     CALM     1010.0
EXECUTION ROCKS  NOT AVBL
CENTRAL LI SOUND 0115            48     330/  4/  4   N/A           1
EASTERN LI SOUND NOT AVBL
ROBBINS REEF     0130            59     160/  4/  5 1010.2
$$


>>>>>>>>>>>>>>>>>>>>>>>>>>>> KEY <<<<<<<<<<<<<<<<<<<<<<<<<<<
>                                                          <
>     SKY/WX - Sky Condition/Present Weather               <
>     TMP    - Temperature in Fahrenheit                   <
>     DP     - Dew Point in Fahrenheit                     <
>     RH     - Relative Humidity in Percent                <
>     WIND   - Direction (from) and Speed in MPH           <
>     PRES   - Mean Sea Level Pressure (inches of Hg)      <
>     WCI    - Wind Chill Index                            <
>     VSB    - VISIBILITY IN MILES                         <
>     HX     - HEAT INDEX                                  <
>     TC     - TEMPERATURE IN CELSIUS                      <
>     VRB    - VARIABLE WIND DIRECTION                     <
>                                                          <
>>>>>>>>>>>>>>>>>>>>>>>>>>>> KEY <<<<<<<<<<<<<<<<<<<<<<<<<<<




USA.gov is the U.S. government's official web portal to all federal, state and local government web resources and services.